Regional Weather Roundup
Issued by NWS

Home | Current Version | Previous Version | Text Only | Print | Product List | Glossary On
Versions: 1 2 3 4 5 6 7 8 9 10 11 12 13 14 15 16 17 18 19 20 21 22 23 24 25 26 27
000
ASUS45 KCYS 021910
RWRWY

WYOMING REGIONAL WEATHER ROUNDUP
NATIONAL WEATHER SERVICE CHEYENNE WY
100 PM MDT MON MAY 02 2016

NOTE:  "FAIR" INDICATES FEW OR NO CLOUDS BELOW 12,000 FEET
WITH NO SIGNIFICANT WEATHER AND/OR OBSTRUCTIONS TO VISIBILITY.

WYZ001-022000-
YELLOWSTONE NATIONAL PARK

CITY           SKY/WX    TMP DP  RH WIND       PRES   REMARKS
LK YELLOWSTONE   N/A     45  15  30 E5        30.30F
W YELLOWSTONE  NOT AVBL

$$
WYZ002>013-054>058-071-098>099-022000-
NORTHERN WYOMING

CITY           SKY/WX    TMP DP  RH WIND       PRES   REMARKS
JACKSON        SUNNY     54  19  26 W6        30.25F
CODY           FAIR      59  27  29 NE6       30.19F
GREYBULL       FAIR      61  26  26 CALM      30.17F
WORLAND        FAIR      58  27  30 CALM      30.18F
SHERIDAN       FAIR      62  33  33 NW13      30.16F
BUFFALO          N/A    N/A N/A N/A MISG      30.18F
GILLETTE       FAIR      59  34  39 NW18G24   30.13F
HULETT         FAIR      59  32  36 NW14G20   30.13F
NEWCASTLE      FAIR      59  27  29 NW16G25   30.12F

$$
WYZ014>020-022>026-101>103-022000-
CENTRAL WYOMING

CITY           SKY/WX    TMP DP  RH WIND       PRES   REMARKS
BIG PINEY      FAIR      50  11  20 VRB3      30.27F
PINEDALE       FAIR      50   9  18 CALM      30.27S
DUBOIS         FAIR      57   0   9 SE3       30.22F
LANDER         FAIR      53  22  29 VRB3      30.21F
RIVERTON       FAIR      53  26  35 VRB5      30.23F
CASPER         FAIR      55  29  36 W13G22    30.20F
DOUGLAS        FAIR      59  31  34 NW21G30   30.16F

$$
WYZ021-027>030-104>119-022000-
SOUTHERN WYOMING

CITY           SKY/WX    TMP DP  RH WIND       PRES   REMARKS
EVANSTON       FAIR      52  21  29 VRB6      30.27F
KEMMERER         N/A     46  19  34 SW6       30.30S
FORT BRIDGER   CLEAR     48  23  37 N3        30.31F
ROCK SPRINGS   FAIR      47  21  35 W7        30.27F
DIXON          FAIR      53  26  35 W10       30.28F
RAWLINS        FAIR      51  14  22 NW9       30.24F
SARATOGA       FAIR      52  27  37 NW12      30.24F
LARAMIE        FAIR      36  17  46 W5        30.23F WCI  32
CHEYENNE       FAIR      53   6  15 NW17      30.18F
TORRINGTON     FAIR      59  29  31 NW12G20   30.13F
PINE BLUFFS    FAIR      54  25  32 W5        30.18F

$$




USA.gov is the U.S. government's official web portal to all federal, state and local government web resources and services.